Wind_Speed
16 14 13 14 14 14 15 15 13 11 10 11 12 13 13 15 18 21 20 20 18 17 15 13 10 7 6 5 2 3 4 5 7 9 10 12 13 15 16 16 16 14 12 11
16 14 16 17 16 15 16 15 13 12 11 14 15 15 15 17 18 19 19 17 16 15 14 12 8 5 4 4 1 4 4 5 7 8 10 12 13 16 17 17 16 15 13 12
17 16 18 18 18 17 16 14 12 12 14 17 17 17 17 18 18 18 17 15 14 12 12 10 6 4 4 3 1 2 2 4 7 9 10 11 11 12 15 17 16 15 14 13
18 18 19 19 18 17 16 14 13 14 16 18 18 18 17 19 19 18 15 13 12 10 10 8 5 4 4 3 2 0 2 4 6 9 10 11 12 13 14 15 16 15 14 14
18 19 20 20 17 16 14 14 15 17 18 18 18 19 17 17 16 15 13 10 9 9 9 7 6 5 3 3 2 1 2 4 6 8 10 11 12 14 14 14 14 14 14 14
19 20 21 19 18 16 15 15 17 19 18 17 16 17 16 16 16 13 9 7 7 8 8 7 6 5 4 3 2 1 2 4 6 8 10 11 12 13 14 14 14 14 15 14
20 20 19 18 18 15 15 16 17 18 17 14 13 14 13 15 14 11 7 6 6 6 7 7 6 5 4 4 3 1 2 4 6 7 10 11 12 12 13 14 15 15 14 15
19 17 17 16 13 12 14 15 16 17 16 14 14 14 12 12 11 9 7 4 5 5 6 6 5 4 4 4 3 2 2 4 6 8 9 12 13 13 14 14 15 15 15 15
18 17 17 17 14 13 13 14 15 16 16 16 14 14 12 10 8 8 6 4 5 5 5 5 5 4 4 4 3 2 2 3 5 8 10 11 13 15 15 15 16 16 16 16
18 19 18 17 16 14 12 11 15 16 17 17 15 14 14 12 10 9 8 6 5 4 4 5 4 4 4 3 3 3 3 3 5 7 10 12 13 15 15 16 16 16 16 16
19 20 20 20 17 14 14 15 16 17 18 19 18 16 14 14 13 11 9 7 5 4 4 4 4 5 4 4 4 4 4 4 5 6 8 12 13 14 16 17 17 17 17 17
20 21 22 22 20 18 17 16 16 18 18 19 20 19 16 15 13 11 10 8 8 7 5 4 4 5 5 4 4 5 5 5 5 6 8 10 12 14 16 17 17 18 17 18
24 25 24 24 24 22 22 20 18 18 19 19 20 20 19 17 16 15 13 10 10 9 7 5 5 6 6 6 6 6 5 5 5 6 8 10 11 14 16 16 17 18 19 19
29 29 28 27 26 25 25 24 23 22 23 22 22 21 21 19 17 15 14 13 13 12 9 6 5 6 7 8 8 7 6 6 6 6 7 9 11 13 16 17 18 18 19 20
34 33 31 29 29 29 29 28 28 28 27 25 24 23 23 22 20 18 16 15 15 12 11 8 7 8 9 9 9 8 8 8 8 7 7 8 10 12 13 15 17 18 18 19
37 36 34 32 31 32 32 31 31 31 31 30 29 27 26 24 23 21 19 18 16 14 13 12 12 10 10 10 10 10 10 9 9 9 9 9 11 12 13 14 17 19 19 19
38 36 34 34 33 34 34 33 34 35 34 34 32 30 29 28 26 24 23 22 19 16 15 14 14 13 13 12 12 11 11 10 10 10 10 10 10 12 13 13 15 17 18 18
40 37 35 33 33 35 34 34 36 37 36 34 32 30 30 29 27 27 25 24 21 18 17 16 16 16 15 14 13 13 12 11 11 11 11 12 12 12 13 14 15 17 19 19
39 37 36 34 33 33 33 35 36 37 37 36 34 33 31 30 29 28 26 24 22 21 20 19 19 18 17 16 15 15 14 13 13 13 13 13 14 14 15 15 16 16 16 18
37 37 36 34 33 32 31 33 36 37 39 36 35 34 33 32 30 27 26 25 24 24 23 22 21 21 19 18 18 18 17 17 16 16 16 16 16 16 16 17 17 17 17 17
35 35 35 34 32 31 30 31 33 36 36 35 35 34 33 32 30 29 28 27 26 26 26 25 24 23 21 22 21 20 19 19 18 18 18 18 18 18 18 19 19 19 20 20
34 34 34 33 32 31 29 29 32 34 34 34 33 33 33 31 30 29 28 27 27 27 28 27 25 23 23 22 21 21 21 21 20 20 20 20 20 20 20 21 21 21 22 24
33 32 31 31 30 28 28 28 30 32 33 33 33 33 32 32 31 30 30 29 28 28 28 27 25 25 24 24 23 23 22 21 21 21 20 20 21 22 21 22 22 23 24 25
30 30 30 30 29 28 27 28 28 29 31 32 32 32 32 32 31 30 29 29 28 28 29 29 27 26 26 26 25 24 22 21 21 21 21 22 22 23 22 23 23 23 24 25
31 30 28 28 29 29 28 27 26 26 27 28 30 31 32 31 30 29 28 28 28 29 28 27 26 26 26 25 24 24 24 23 23 23 23 23 24 24 24 24 24 25 26 26
29 29 29 29 28 27 26 25 25 25 26 26 27 28 28 28 29 29 28 28 28 27 26 25 25 25 25 24 24 24 24 24 24 25 24 24 24 24 25 25 25 26 26 27
Wind_Direction
262 262 261 256 252 248 249 252 260 274 284 284 285 291 295 301 310 313 318 325 329 332 333 335 334 339 339 335 290 202 195 185 184 192 199 198 197 195 196 199 199 199 200 199
257 258 253 252 252 250 253 256 261 267 273 280 282 286 291 296 303 307 316 324 327 331 334 335 332 342 340 341 315 197 187 189 189 190 195 194 195 197 198 197 197 197 196 198
254 250 251 252 252 250 251 255 259 263 266 272 279 284 292 295 297 302 314 327 333 341 340 338 338 354 3 7 55 161 183 187 192 194 193 192 190 194 195 194 195 197 198 199
250 249 251 253 255 256 254 254 256 258 263 267 274 280 281 283 288 296 309 325 335 343 349 348 356 4 31 39 43 24 198 184 187 195 192 192 194 193 193 195 197 198 199 199
247 248 249 252 253 254 254 256 255 254 260 265 270 277 274 276 282 291 302 319 342 356 1 6 1 2 21 20 18 347 205 190 196 197 192 193 194 196 196 196 200 201 200 201
245 245 249 252 250 246 249 253 253 253 257 262 269 277 279 283 286 285 292 315 348 357 356 1 1 358 13 357 349 340 200 197 198 198 197 194 194 197 201 201 202 204 204 205
243 243 248 250 249 245 245 250 253 252 253 258 267 277 285 290 288 280 287 322 348 1 355 356 360 5 360 344 327 276 218 205 207 202 199 197 199 202 204 205 205 207 208 210
241 238 238 240 247 253 247 249 252 254 254 255 262 279 289 293 295 286 279 304 340 3 358 351 354 351 344 337 330 291 239 225 217 210 207 207 208 208 210 209 210 209 213 215
238 230 227 225 229 239 243 249 254 254 254 257 265 275 283 296 297 291 284 299 342 350 349 345 347 338 340 340 335 301 265 248 237 222 221 215 213 215 213 213 213 213 215 220
234 228 222 221 223 227 237 247 251 250 254 257 262 269 282 290 295 293 289 300 325 339 344 342 338 329 331 340 337 308 285 281 264 241 227 220 218 218 217 216 216 218 220 224
232 225 215 217 218 220 230 237 246 250 251 256 261 269 278 287 296 301 292 293 293 304 316 325 334 320 318 324 321 306 288 277 263 244 228 223 222 221 219 217 220 222 225 229
231 227 219 218 219 222 227 233 240 247 251 255 261 266 273 281 291 294 292 288 296 299 298 299 314 311 305 306 305 301 290 274 260 244 234 229 226 223 222 221 222 223 226 230
231 231 226 220 221 225 229 232 238 246 249 251 256 263 268 273 281 289 292 288 288 288 284 287 302 302 301 300 294 292 287 283 270 253 242 234 231 226 223 223 224 227 231 234
230 233 232 228 226 229 231 234 238 245 249 251 253 258 263 268 275 285 290 288 287 287 295 291 299 304 299 299 291 284 284 288 276 262 250 246 240 235 229 231 233 234 238 242
231 233 236 236 235 237 236 237 240 244 249 252 253 255 257 261 269 276 281 290 286 286 292 293 301 299 293 296 296 286 287 291 283 271 266 260 254 246 240 240 240 240 244 247
233 235 237 239 242 243 241 241 243 245 247 250 252 253 255 262 268 271 277 286 287 287 289 293 291 292 290 292 292 287 288 285 283 275 265 263 261 254 250 249 249 248 249 249
237 239 240 241 244 245 243 243 245 248 250 250 252 255 256 259 265 273 276 280 281 279 285 287 285 284 283 283 284 284 284 278 275 274 268 263 262 260 258 256 254 255 255 255
238 242 243 243 243 244 244 243 245 247 250 252 253 254 256 259 265 270 274 274 273 276 277 280 281 279 277 277 279 281 281 278 276 277 277 272 265 265 267 269 267 266 264 260
238 242 244 245 244 244 242 242 244 246 249 252 253 255 256 258 262 266 271 271 269 271 271 274 277 276 274 273 273 273 272 272 274 277 277 273 269 271 271 272 268 268 270 266
236 240 244 246 247 245 240 241 243 246 250 252 254 256 257 261 262 266 268 268 268 268 268 267 267 269 267 267 270 270 270 268 270 274 274 270 269 269 272 274 273 273 272 268
235 238 242 246 248 247 242 241 244 247 250 253 255 256 259 257 260 262 263 265 265 264 266 266 266 264 263 264 265 266 267 267 269 272 274 272 270 273 276 278 281 280 277 274
234 236 240 244 246 247 244 243 245 248 250 252 253 254 258 257 260 261 262 264 264 264 266 266 262 262 261 260 261 263 264 266 268 270 273 275 276 278 277 280 282 282 280 278
233 236 240 243 246 247 247 248 249 249 251 253 255 255 258 258 260 261 263 264 264 264 265 264 260 260 260 260 261 265 268 268 269 271 274 277 279 281 281 281 282 282 281 280
235 238 240 243 246 249 251 251 252 252 254 255 256 257 258 259 260 262 263 263 264 264 264 263 259 259 260 260 263 265 265 269 271 272 274 275 279 281 280 282 283 281 280 279
237 239 241 243 248 253 253 252 251 253 256 256 256 258 259 259 261 263 265 263 262 262 261 259 257 258 260 261 263 264 267 270 271 272 273 276 279 280 279 281 281 281 280 281
238 241 243 245 247 250 250 251 252 253 254 256 258 257 258 258 259 260 262 262 261 260 259 258 258 257 259 260 262 264 265 268 270 271 272 276 279 280 281 281 281 282 281 282
Height
5875 5877 5876 5876 5875 5875 5875 5874 5874 5874 5873 5872 5871 5870 5870 5869 5867 5865 5862 5859 5856 5852 5849 5847 5845 5844 5843 5842 5841 5841 5842 5844 5846 5848 5850 5852 5855 5857 5860 5862 5864 5867 5868 5870
5871 5872 5871 5871 5871 5871 5871 5871 5871 5872 5870 5869 5868 5868 5868 5867 5865 5862 5860 5856 5854 5850 5848 5845 5844 5843 5842 5841 5840 5840 5842 5843 5845 5847 5848 5851 5853 5855 5857 5860 5862 5865 5867 5869
5866 5868 5866 5867 5867 5867 5867 5868 5868 5869 5867 5867 5866 5866 5865 5865 5863 5861 5858 5855 5852 5849 5846 5843 5842 5843 5842 5841 5842 5842 5842 5842 5844 5846 5848 5850 5851 5853 5855 5858 5861 5863 5865 5867
5861 5862 5862 5862 5863 5863 5863 5864 5865 5865 5865 5864 5864 5863 5864 5862 5861 5858 5857 5854 5851 5849 5846 5844 5843 5842 5842 5842 5842 5842 5842 5843 5844 5845 5847 5849 5850 5852 5854 5857 5859 5861 5863 5866
5856 5856 5856 5857 5859 5859 5859 5860 5861 5861 5861 5861 5861 5861 5861 5859 5858 5857 5855 5853 5850 5848 5846 5845 5844 5843 5842 5842 5842 5842 5842 5843 5844 5845 5846 5848 5849 5851 5853 5855 5857 5859 5862 5864
5850 5851 5851 5853 5853 5854 5855 5856 5857 5857 5858 5858 5859 5858 5858 5856 5855 5855 5853 5851 5849 5847 5846 5845 5843 5842 5841 5841 5841 5841 5842 5842 5843 5844 5845 5846 5848 5850 5852 5853 5856 5858 5860 5863
5844 5846 5847 5848 5849 5850 5851 5852 5853 5853 5854 5855 5855 5855 5855 5854 5853 5851 5851 5850 5848 5846 5845 5844 5842 5841 5841 5841 5841 5841 5841 5841 5842 5842 5843 5845 5846 5848 5850 5852 5854 5856 5858 5860
5838 5841 5843 5844 5845 5846 5847 5849 5850 5851 5851 5851 5851 5851 5852 5850 5849 5848 5848 5847 5846 5845 5844 5843 5841 5841 5840 5840 5840 5840 5840 5840 5841 5841 5842 5843 5845 5847 5848 5850 5852 5854 5856 5858
5833 5837 5838 5839 5841 5843 5844 5844 5846 5847 5847 5847 5848 5848 5849 5847 5847 5846 5845 5845 5843 5843 5843 5842 5841 5841 5840 5839 5839 5839 5839 5839 5839 5840 5841 5842 5843 5844 5846 5848 5850 5852 5854 5855
5828 5832 5834 5835 5837 5838 5840 5842 5842 5843 5843 5843 5844 5845 5846 5845 5844 5844 5843 5842 5841 5841 5841 5841 5840 5840 5839 5839 5838 5838 5838 5838 5838 5838 5839 5839 5841 5842 5843 5845 5847 5849 5851 5853
5823 5826 5829 5831 5832 5834 5836 5837 5838 5839 5839 5840 5840 5844 5843 5842 5841 5840 5840 5840 5839 5840 5840 5840 5839 5839 5838 5838 5837 5837 5836 5836 5836 5836 5836 5837 5838 5839 5840 5842 5844 5846 5848 5849
5817 5820 5824 5827 5829 5830 5831 5832 5834 5835 5836 5836 5837 5841 5839 5839 5838 5838 5837 5837 5838 5838 5838 5838 5838 5837 5837 5836 5836 5836 5835 5834 5834 5834 5834 5834 5835 5836 5838 5839 5841 5843 5844 5845
5812 5815 5818 5822 5826 5826 5827 5828 5829 5830 5831 5832 5833 5837 5835 5835 5835 5835 5835 5835 5836 5836 5836 5835 5835 5836 5835 5834 5834 5834 5833 5832 5832 5832 5832 5832 5833 5833 5835 5836 5838 5839 5841 5841
5806 5809 5813 5817 5819 5820 5822 5823 5824 5826 5826 5827 5829 5830 5830 5831 5832 5832 5833 5833 5834 5834 5833 5832 5832 5833 5833 5832 5832 5831 5831 5830 5830 5829 5829 5829 5830 5830 5831 5833 5834 5835 5836 5837
5800 5803 5806 5810 5813 5815 5817 5818 5819 5820 5821 5822 5824 5825 5826 5826 5828 5829 5830 5830 5831 5832 5831 5830 5830 5830 5830 5830 5829 5829 5829 5828 5827 5827 5826 5827 5827 5827 5828 5829 5830 5831 5831 5832
5793 5797 5800 5804 5806 5808 5810 5813 5814 5815 5816 5816 5818 5819 5821 5822 5823 5825 5826 5826 5827 5828 5828 5828 5828 5828 5828 5828 5827 5827 5826 5826 5825 5824 5824 5824 5824 5824 5825 5825 5825 5826 5827 5827
5787 5791 5794 5797 5799 5801 5804 5807 5808 5808 5809 5811 5812 5814 5815 5817 5818 5819 5820 5821 5822 5823 5824 5824 5824 5824 5825 5825 5824 5824 5823 5823 5822 5822 5821 5821 5821 5821 5821 5822 5822 5822 5822 5823
5780 5783 5786 5789 5793 5794 5799 5799 5799 5800 5801 5803 5805 5808 5810 5811 5812 5813 5815 5816 5816 5818 5819 5820 5820 5820 5821 5821 5820 5820 5820 5819 5818 5818 5818 5818 5819 5819 5818 5818 5818 5818 5818 5818
5773 5776 5778 5781 5783 5785 5789 5790 5791 5792 5793 5796 5799 5801 5803 5805 5806 5807 5809 5810 5811 5812 5813 5815 5815 5816 5816 5816 5816 5816 5816 5815 5815 5815 5815 5815 5815 5815 5815 5814 5814 5814 5813 5812
5765 5767 5770 5772 5775 5778 5782 5783 5783 5786 5786 5789 5791 5794 5796 5798 5800 5802 5803 5804 5805 5806 5807 5808 5808 5809 5810 5811 5811 5811 5811 5811 5811 5811 5810 5810 5810 5810 5810 5810 5809 5808 5808 5807
5757 5759 5762 5765 5767 5770 5774 5776 5777 5779 5780 5783 5784 5787 5788 5790 5792 5794 5795 5797 5798 5799 5800 5800 5801 5802 5803 5804 5804 5805 5805 5805 5805 5805 5805 5804 5804 5804 5804 5804 5804 5803 5803 5802
5749 5752 5755 5758 5760 5764 5766 5768 5770 5771 5773 5775 5777 5779 5780 5782 5784 5785 5787 5789 5790 5791 5792 5792 5793 5794 5795 5796 5797 5798 5798 5799 5800 5800 5800 5799 5799 5799 5798 5798 5798 5797 5797 5796
5742 5746 5748 5751 5755 5756 5758 5760 5762 5763 5765 5767 5769 5771 5772 5773 5775 5777 5779 5781 5782 5784 5785 5785 5786 5787 5788 5790 5791 5791 5792 5793 5793 5793 5794 5793 5793 5793 5792 5792 5792 5791 5790 5788
5736 5738 5741 5744 5746 5748 5750 5752 5754 5756 5757 5759 5761 5762 5764 5765 5767 5769 5771 5773 5774 5776 5777 5778 5779 5780 5781 5783 5784 5785 5786 5786 5786 5786 5787 5787 5787 5786 5786 5785 5785 5784 5783 5781
5729 5732 5734 5737 5739 5741 5743 5745 5746 5748 5749 5750 5752 5754 5756 5757 5758 5760 5763 5764 5766 5767 5769 5770 5771 5773 5774 5776 5777 5778 5779 5779 5780 5779 5780 5780 5780 5779 5779 5778 5777 5776 5775 5774
5723 5726 5728 5730 5732 5734 5736 5737 5738 5740 5741 5743 5744 5746 5747 5748 5750 5752 5754 5756 5757 5759 5761 5762 5764 5765 5766 5768 5769 5771 5772 5772 5773 5772 5772 5773 5773 5772 5771 5771 5770 5768 5767 5766